EDT,Max TemperatureF,Mean TemperatureF,Min TemperatureF,Max Dew PointF,MeanDew PointF,Min DewpointF,Max Humidity, Mean Humidity, Min Humidity, Max Sea Level PressureIn, Mean Sea Level PressureIn, Min Sea Level PressureIn, Max VisibilityMiles, Mean VisibilityMiles, Min VisibilityMiles, Max Wind SpeedMPH, Mean Wind SpeedMPH, Max Gust SpeedMPH,PrecipitationIn, CloudCover, Events, WindDirDegrees
2013-6-1,88,76,63,67,61,58,84,62,39,30.10,30.05,29.97,10,10,10,22,6,30,0.00,1,,175
2013-6-2,78,73,68,70,65,59,90,76,62,30.02,29.96,29.91,10,8,0,12,3,25,0.79,6,Fog-Rain-Thunderstorm,142
2013-6-3,82,73,64,66,62,56,93,71,48,29.99,29.91,29.87,10,10,10,16,5,23,0.01,5,Rain,300
2013-6-4,80,69,57,61,56,52,84,62,39,30.13,30.07,29.99,10,10,7,15,5,18,0.00,2,,125
2013-6-5,73,67,61,63,59,50,87,72,56,30.18,30.11,30.06,10,9,2,12,4,15,0.01,7,Rain,158
2013-6-6,67,64,61,63,61,59,97,92,87,30.04,29.96,29.85,10,5,1,13,4,16,1.77,8,Rain,72
2013-6-7,75,70,64,67,63,57,93,83,73,29.87,29.76,29.65,10,8,2,14,5,16,0.22,7,Rain,4
2013-6-8,84,73,62,62,59,56,84,62,40,30.11,29.97,29.85,10,10,5,13,4,15,0.10,3,Rain,255
2013-6-9,85,75,65,68,64,62,87,69,51,30.17,30.11,30.06,10,9,2,23,4,30,0.30,6,Rain-Thunderstorm,173
2013-6-10,82,74,65,70,67,63,97,82,67,30.12,29.96,29.86,10,8,2,26,6,33,0.32,7,Rain-Thunderstorm,140
2013-6-11,82,74,65,64,61,58,93,70,47,29.97,29.92,29.89,10,10,2,22,9,32,0.14,4,Rain,282
2013-6-12,91,80,68,69,65,61,82,65,47,29.98,29.92,29.86,10,10,10,20,7,26,0.00,1,,285
2013-6-13,90,77,64,69,64,53,79,62,44,29.85,29.72,29.60,10,9,1,49,12,68,0.38,3,Rain-Thunderstorm,272
2013-6-14,78,71,63,55,53,50,73,58,43,30.06,29.91,29.79,10,10,10,21,8,29,0.00,2,,324
2013-6-15,84,71,57,57,55,52,86,60,34,30.14,30.08,30.04,10,10,10,15,4,21,0.00,1,,291
2013-6-16,86,74,62,65,60,56,84,64,44,30.08,30.04,29.99,10,10,10,20,7,26,0.05,3,Rain,266
2013-6-17,86,77,67,67,65,62,93,72,51,30.04,29.98,29.93,10,10,8,17,4,22,0.01,4,Rain,211
2013-6-18,75,69,63,68,65,60,97,81,64,29.95,29.89,29.85,10,8,2,20,4,24,0.52,6,Rain,345
2013-6-19,80,70,59,66,63,59,97,77,56,30.18,30.07,29.94,10,8,0,21,3,36,0.62,5,Rain-Thunderstorm,251
2013-6-20,78,72,66,65,64,62,93,79,64,30.27,30.23,30.17,10,8,4,14,7,,0.00,6,,127
2013-6-21,82,72,62,63,60,55,90,71,51,30.31,30.27,30.22,10,10,10,14,4,17,0.00,2,,127
2013-6-22,85,73,60,67,60,56,90,67,43,30.29,30.23,30.14,10,10,10,16,4,20,0.00,4,,102
2013-6-23,88,78,68,67,65,58,90,63,36,30.24,30.17,30.11,10,10,10,13,3,16,0.00,3,,194
2013-6-24,88,78,68,69,66,62,84,64,43,30.20,30.15,30.09,10,10,2,20,4,21,0.17,3,Rain,249
2013-6-25,89,79,68,69,66,65,90,71,51,30.12,30.07,29.99,10,10,10,15,6,18,0.00,1,,292
2013-6-26,90,78,66,71,67,63,100,75,50,30.03,29.97,29.92,10,8,0,49,5,71,0.81,3,Fog-Rain-Thunderstorm,270
2013-6-27,83,75,67,69,66,64,100,78,55,29.93,29.81,29.72,10,8,0,18,5,23,T,4,Fog-Rain,267
2013-6-28,90,81,72,68,64,55,79,58,37,29.75,29.64,29.54,10,10,10,24,9,33,0.00,2,,268
2013-6-29,84,76,67,67,63,61,90,69,47,29.73,29.65,29.60,10,10,9,17,7,25,0.18,4,Rain,240
2013-6-30,84,76,67,70,68,64,93,76,58,29.90,29.80,29.72,10,9,4,18,5,26,0.09,6,Rain-Thunderstorm,146